INTELSAT III F-4

operational
NORAD ID: 3947 Int'l Des: 1969-045 Owner: INTEL Country: I-INT
HEOCIRCULAR

About INTELSAT III F-4

Description loading...

Live Position

Loading 3D Globe...

Upcoming Passes

Altitude History

Altitude vs Time

uPlot chart will show altitude changes over time

Two-Line Element Set

1 03947U 69045A 25338.38321414 -.00000090 00000-0 00000-0 0 9994
2 03947 4.2739 288.7879 0022764 68.5784 342.3741 0.90044794 64212
Epoch: Dec 4, 2025 • Age: 17 hours

Current Status

Altitude 39009.6 km
Velocity 2.96 km/s
Sub-Earth Point -4.24°S, 102.16°E
Type communications

Large Constellations

Loading constellations...